CZ-6A DEB

Satellite information

Favourite Embed

Satellite Type and Status

DEBRISIN ORBIT

Key statistics

Satellite CZ-6A DEB at a glance.

Uptime

909

Days in orbit

Revolutions

≈ 14.5

Per day

Orbit

SSO

Sun Synchronous Orbit

Inclination

98.8

Latest

Satellite identification and parameters

Extended collection of information and parameters for CZ-6A DEB.

Object identification

Identified? True

Debris? True

Object name: CZ-6A DEB

International designator: 2022-151KT

Object number (NORAD): 54543

Object ID (CCSDS): 54543

Country: PEOPLES REPUBLIC OF CHINA (PRC)

Current information (Y/N): Y

RCS size: SMALL

Orbital parameters

Period: 99.379 minutes

Inclination: 98.7714 deg

SMA: 7107.052 km

Apoapsis: 812.623 km

Periapsis: 645.21 km

RAAN: 182.4525 deg

Eccentricy: 0.0117779

Argument of periapsis: 104.7002 deg

Mean anomaly: 256.728 deg

Mean motion: 14.49000592 rev/day

Mean motion (dot): 0.00002753 rev/day2

B* drag term: 0.00067717 1/REarth

Two-line elements (TLE)

Creation date: May 8, 2025, 3:01 a.m.

Reference frame: TEME

Reference center: EARTH

Epoch: May 7, 2025, 7:33 p.m. UTC

TLE line 0: 0 CZ-6A DEB

TLE line 1: 1 54543U 22151KT 25127.81504670 .00002753 00000-0 67717-3 0 9998

TLE line 2: 2 54543 98.7714 182.4525 0117779 104.7002 256.7280 14.49000592130752

Live tracking on map

Real-time ground track for satellite CZ-6A DEB.

In-orbit conjunctions

A list of the most updated potential collisions computed for object CZ-6A DEB.

Target Orbit TCA Probability of collision Miss distance Type
COSMOS 1275 DEB LEO 2024-11-12 19:57:37 0.0004589867 98.0 (m) DEBRIS
METEOR 2-8 DEB LEO 2024-07-17 13:38:16 0.0001848229 109.0 (m) DEBRIS

Associated space launch

Chinese satellite reported for atmospheric/ocean/environmental/spatial parameter research purposes, details TBD.

CZ-6A DEB was lifted into orbit during the mission ‘Long March 6A | Yunhai 3’, on board a Long March 6A space rocket.

The launch took place on Nov. 11, 2022, 10:52 p.m. from Launch Complex 9A.

For more information about the launch, click the button.

Launch to space Long March 6A | Yunhai 3
Long March 6A | Yunhai 3

Agency: N/A

Status: Launch Successful

Launch date: Nov. 11, 2022, 10:52 p.m. UTC

Rocket: Long March 6A

Launch pad: Launch Complex 9A

Location: Taiyuan Satellite Launch Center, People's Republic of China

...

Latest news about this satellite

There are no fresh news available about this satellite. Check back as we update our databases every day.


Newsletter sign-up

Weekly statistics, charts and insights to help you stay on top of the space industry.